[[{"header":{"parameterUnit":"m.s-1","parameterCategory":1,"la1":30.2991,"la2":30.254,"lo1":-89.0895,"lo2":-89.0444,"dy":0.0017,"dx":0.0017,"nx":28,"ny":28,"refTime":"2024-06-15T03:00:00:Z","depth":0,"parameterNumber":2,"parameterNumberName":"U-component_of_WINDS"},"data":[0,0,0,0,0,0,0,0,0,0,0,0,0,0,0,0,0,0,0,0,0,0,0,0,0,0,0,0,0,0,0,0,0,0,0,0,0,0,0,0,0,0,0,0,0,0,0,0,0,0,0,0,0,0,0,0,0,0,-2.7324,-2.7325,0,-2.741,-2.7411,-2.7412,-2.7395,-2.7393,-2.7391,-2.739,-2.7479,-2.7483,-2.7486,0,0,0,0,0,0,0,0,0,0,0,0,0,-2.7145,-2.7149,-2.7324,-2.7325,-2.7326,-2.741,-2.7412,-2.7413,-2.7395,-2.7393,-2.7391,-2.7389,-2.7478,-2.7482,-2.7487,0,0,0,0,0,0,0,0,0,0,0,0,0,-2.7226,-2.715,-2.7324,-2.7328,-2.7329,-2.741,-2.7412,-2.7413,-2.7395,-2.7393,-2.7391,-2.7388,-2.7476,-2.7482,-2.7487,-2.7571,0,0,-2.7505,-2.7507,0,0,0,0,0,0,0,0,-2.7222,-2.7233,-2.7326,-2.7328,-2.7329,-2.7389,-2.7381,-2.7466,-2.7396,-2.737,-2.739,-2.7387,-2.7451,-2.7459,-2.748,-2.7575,-2.7579,-2.7505,-2.7509,-2.7511,-2.7513,0,0,0,0,0,0,0,-2.7216,-2.7229,-2.7358,-2.7327,-2.7329,-2.7325,-2.7334,-2.7397,-2.7423,-2.7372,-2.7371,-2.7381,-2.7451,-2.7475,-2.7482,-2.758,-2.7505,-2.751,-2.7514,-2.7516,-2.7747,-2.775,0,0,0,0,0,0,-2.7209,-2.7225,-2.7356,-2.7361,-2.7268,-2.733,-2.734,-2.7372,-2.7422,-2.7427,-2.7383,-2.738,-2.7466,-2.7475,-2.7485,-2.7585,-2.7511,-2.7517,-2.752,-2.7745,-2.7748,-2.7751,0,0,0,0,0,0,-2.7205,-2.7221,-2.7352,-2.7293,-2.7309,-2.7336,-2.7372,-2.7375,-2.7398,-2.7431,-2.7435,-2.7402,-2.7464,-2.7477,-2.7549,-2.7588,-2.7519,-2.7525,-2.7741,-2.7746,-2.7749,-2.7787,0,0,0,0,0,0,-2.72,-2.722,-2.7251,-2.7293,-2.7312,-2.7415,-2.7375,-2.7379,-2.7408,-2.7405,-2.745,-2.7455,-2.7463,-2.7541,-2.7555,-2.7595,-2.7529,-2.7738,-2.7743,-2.7748,-2.7782,-2.7792,-2.78,0,0,0,0,0,-2.7194,-2.7259,-2.7253,-2.7269,-2.7352,-2.7417,-2.7428,-2.7436,-2.7412,-2.7444,-2.7465,-2.7453,-2.7582,-2.7548,-2.7564,-2.7606,-2.7736,-2.7742,-2.7748,-2.7778,-2.779,-2.78,0,0,0,0,0,0,-2.7221,-2.7264,-2.7258,-2.7339,-2.7374,-2.7414,-2.7455,-2.7448,-2.7492,-2.7487,-2.7496,-2.7507,-2.758,-2.7601,-2.7563,-2.769,-2.7655,-2.7665,-2.7673,-2.7685,-2.7693,-2.7686,-2.7534,0,0,0,0,0,-2.7236,-2.7285,-2.732,-2.7388,-2.7406,-2.7427,-2.7456,-2.746,-2.7497,-2.7512,-2.7538,-2.7575,-2.7623,-2.7655,-2.7702,-2.7786,-2.7795,-2.7823,-2.7831,-2.7838,-2.7846,-2.7892,-2.7904,-2.777,-2.777,-2.777,0,0,-2.7268,-2.7298,-2.7328,-2.7394,-2.7422,-2.7472,-2.744,-2.7495,-2.7532,-2.752,-2.759,-2.7611,-2.7652,-2.7731,-2.7766,-2.775,-2.7885,-2.7846,-2.7851,-2.7855,-2.7899,-2.7912,-2.7923,-2.7775,-2.7774,-2.7773,0,0,-2.7352,-2.7379,-2.7438,-2.7467,-2.751,-2.7524,-2.7538,-2.7579,-2.7592,-2.7662,-2.7654,-2.7699,-2.7783,-2.7813,-2.7839,-2.7935,-2.7926,-2.795,-2.7996,-2.804,-2.8051,-2.806,-2.8094,-2.8106,-2.7958,-2.7958,-2.7958,0,-2.7386,-2.7461,-2.747,-2.7525,-2.7554,-2.7546,-2.7606,-2.7633,-2.7689,-2.771,-2.7691,-2.7796,-2.7823,-2.7908,-2.7932,-2.7954,-2.797,-2.7945,-2.8048,-2.8058,-2.8067,-2.8099,-2.8112,-2.7961,-2.7961,-2.796,-2.796,0,-2.7501,-2.7554,-2.7596,-2.765,-2.7684,-2.7742,-2.7759,-2.7793,-2.7794,-2.781,-2.7881,-2.7914,-2.7967,-2.7988,-2.799,-2.8074,-2.8062,-2.8046,-2.8011,-2.8082,-2.8112,-2.8125,-2.7965,-2.7964,-2.7963,-2.7962,0,0,-2.7603,-2.7661,-2.7677,-2.7701,-2.7748,-2.7789,-2.7846,-2.7898,-2.7926,-2.7966,-2.8014,-2.8085,-2.807,-2.81,-2.8105,-2.8144,-2.8218,-2.8123,-2.8124,-2.8139,-2.8312,-2.8323,-2.8337,-2.8213,-2.8215,-2.8217,-2.8308,0,-2.7691,-2.7791,-2.78,-2.7891,-2.7939,-2.7932,-2.7982,-2.8016,-2.8033,-2.8077,-2.8096,-2.8146,-2.8123,-2.8141,-2.8179,-2.8201,-2.8252,-2.8194,-2.8257,-2.826,-2.8246,-2.8353,-2.8366,-2.845,-2.832,-2.8322,-2.8324,0,-2.7806,-2.7848,-2.7943,-2.7983,-2.8003,-2.8048,-2.8096,-2.8138,-2.8177,-2.8187,-2.8221,-2.8221,-2.828,-2.8244,-2.8326,-2.8286,-2.8313,-2.8327,-2.8331,-2.8336,-2.8295,-2.8361,-2.8477,-2.8489,-2.8343,-2.8341,-2.834,0,-2.787,-2.7951,-2.8018,-2.8039,-2.8087,-2.8119,-2.8141,-2.8177,-2.8208,-2.825,-2.827,-2.8319,-2.8346,-2.8384,-2.8397,-2.837,-2.8479,-2.8444,-2.8488,-2.8488,-2.851,-2.8509,-2.8632,-2.8529,-2.8529,-2.8529,-2.8529,0,-2.7966,-2.8024,-2.8047,-2.8088,-2.8153,-2.8164,-2.8228,-2.8248,-2.8281,-2.8326,-2.8324,-2.8366,-2.8382,-2.8427,-2.8439,-2.8504,-2.8517,-2.8526,-2.8528,-2.8526,-2.8525,-2.8543,-2.8537,-2.8532,-2.8531,-2.8531,-2.853,0,-2.8048,-2.8066,-2.8138,-2.8178,-2.819,-2.8236,-2.827,-2.831,-2.8327,-2.8384,-2.8398,-2.8424,-2.8477,-2.8495,-2.8559,-2.8567,-2.8644,-2.8641,-2.863,-2.863,-2.8673,-2.8669,-2.8811,-2.8831,-2.8716,-2.8717,-2.8718,0,-2.8108,-2.8152,-2.8197,-2.8227,-2.825,-2.8298,-2.8329,-2.8342,-2.8374,-2.8422,-2.8456,-2.8509,-2.8552,-2.8637,-2.8662,-2.8712,-2.871,-2.8757,-2.8717,-2.8713,-2.871,-2.8707,-2.8711,-2.8764,-2.8765,-2.8766,-2.8766,0,-2.8212,-2.8218,-2.8263,-2.8311,-2.8348,-2.8386,-2.8424,-2.8448,-2.8466,-2.8503,-2.8557,-2.859,-2.8656,-2.8709,-2.8759,-2.8782,-2.8778,-2.8779,-2.8792,-2.8789,-2.8781,-2.8785,-2.8649,-2.8775,-2.8774,-2.8774,-2.8773,-2.8773,-2.8284,-2.8323,-2.8361,-2.8411,-2.844,-2.8475,-2.8514,-2.8535,-2.858,-2.8635,-2.864,-2.8698,-2.8736,-2.8804,-2.8829,-2.8875,-2.8862,-2.8881,-2.8885,-2.889,-2.8893,-2.8774,-2.8885,-2.8884,-2.8884,-2.8884,-2.8884,0,-2.8388,-2.8412,-2.8457,-2.8509,-2.8548,-2.854,-2.8581,-2.8615,-2.8666,-2.8702,-2.8744,-2.8806,-2.8857,-2.8886,-2.8937,-2.8969,-2.8968,-2.8982,-2.8979,-2.8984,-2.8902,-2.8885,-2.8981,-2.8981,-2.8981,-2.8981,-2.8981,-2.8981,-2.8446,-2.8512,-2.8523,-2.8603,-2.8626,-2.8683,-2.8707,-2.8739,-2.8768,-2.8837,-2.8879,-2.8898,-2.8931,-2.8985,-2.9031,-2.9038,-2.9057,-2.9072,-2.9078,-2.9,-2.899,-2.898,-2.8965,-2.9076,-2.9076,-2.9157,-2.9157,-2.9158]},{"header":{"parameterUnit":"m.s-1","parameterCategory":1,"la1":30.2991,"la2":30.254,"lo1":-89.0895,"lo2":-89.0444,"dy":0.0017,"dx":0.0017,"nx":28,"ny":28,"refTime":"2024-06-15T03:00:00:Z","depth":0,"parameterNumber":3,"parameterNumberName":"V-component_of_WINDS"},"data":[0,0,0,0,0,0,0,0,0,0,0,0,0,0,0,0,0,0,0,0,0,0,0,0,0,0,0,0,0,0,0,0,0,0,0,0,0,0,0,0,0,0,0,0,0,0,0,0,0,0,0,0,0,0,0,0,0,0,2.9013,2.9014,0,2.9052,2.9053,2.9053,2.9044,2.9043,2.9043,2.9042,2.9078,2.9079,2.9081,0,0,0,0,0,0,0,0,0,0,0,0,0,2.8927,2.8928,2.9013,2.9014,2.9014,2.9052,2.9053,2.9053,2.9044,2.9043,2.9042,2.9042,2.9077,2.9079,2.9081,0,0,0,0,0,0,0,0,0,0,0,0,0,2.8965,2.8929,2.9013,2.9014,2.9015,2.9052,2.9053,2.9054,2.9044,2.9043,2.9042,2.9041,2.9077,2.9079,2.9081,2.9119,0,0,2.9089,2.909,0,0,0,0,0,0,0,0,2.8963,2.8968,2.9014,2.9014,2.9015,2.9042,2.9036,2.9075,2.9045,2.9033,2.9042,2.9041,2.9067,2.907,2.9079,2.9121,2.9122,2.9089,2.9091,2.9092,2.9092,0,0,0,0,0,0,0,2.896,2.8966,2.9029,2.9014,2.9015,2.9012,2.9016,2.9043,2.9055,2.9034,2.9033,2.9038,2.9067,2.9077,2.908,2.9123,2.9089,2.9091,2.9093,2.9094,2.9196,2.9197,0,0,0,0,0,0,2.8957,2.8964,2.9027,2.903,2.8986,2.9014,2.9019,2.9035,2.9055,2.9057,2.9039,2.9038,2.9073,2.9077,2.9081,2.9126,2.9092,2.9094,2.9095,2.9195,2.9196,2.9197,0,0,0,0,0,0,2.8955,2.8963,2.9026,2.8997,2.9005,2.9017,2.9035,2.9036,2.9046,2.9059,2.9061,2.9048,2.9073,2.9078,2.911,2.9127,2.9095,2.9097,2.9193,2.9195,2.9197,2.9216,0,0,0,0,0,0,2.8953,2.8962,2.8978,2.8997,2.9006,2.9055,2.9036,2.9037,2.9051,2.905,2.9068,2.907,2.9072,2.9106,2.9112,2.913,2.9099,2.9192,2.9194,2.9196,2.9214,2.9218,2.9222,0,0,0,0,0,2.895,2.8981,2.8978,2.8986,2.9026,2.9056,2.9061,2.9064,2.9053,2.9067,2.9076,2.9069,2.9125,2.911,2.9116,2.9135,2.919,2.9193,2.9196,2.9212,2.9217,2.9222,0,0,0,0,0,0,2.8961,2.8983,2.8981,2.9019,2.9036,2.9054,2.9073,2.907,2.9089,2.9086,2.9089,2.9093,2.9125,2.9134,2.9116,2.9172,2.9156,2.916,2.9165,2.9171,2.9175,2.9171,2.9101,0,0,0,0,0,2.8968,2.8992,2.901,2.9041,2.905,2.906,2.9073,2.9075,2.9092,2.9098,2.9109,2.9124,2.9145,2.9158,2.9178,2.9215,2.9218,2.9232,2.9236,2.9239,2.9242,2.9261,2.9267,2.9207,2.9206,2.9206,0,0,2.8982,2.8997,2.9012,2.9044,2.9057,2.908,2.9066,2.9091,2.9108,2.9101,2.9132,2.9141,2.9158,2.9192,2.9208,2.92,2.926,2.9242,2.9245,2.9246,2.9265,2.927,2.9276,2.9208,2.9208,2.9208,0,0,2.902,2.9034,2.9062,2.9076,2.9097,2.9104,2.911,2.913,2.9135,2.9167,2.9162,2.9182,2.9218,2.9231,2.9241,2.9285,2.9279,2.9292,2.9312,2.9331,2.9336,2.934,2.9355,2.936,2.9295,2.9295,2.9295,0,2.9034,2.9071,2.9077,2.9103,2.9116,2.9114,2.9141,2.9154,2.9179,2.9188,2.918,2.9225,2.9237,2.9274,2.9284,2.9294,2.9301,2.9289,2.9335,2.9339,2.9343,2.9357,2.9363,2.9296,2.9296,2.9296,2.9296,0,2.9087,2.9112,2.9132,2.9159,2.9175,2.9201,2.921,2.9226,2.9226,2.9234,2.9265,2.9279,2.9302,2.9311,2.9311,2.9348,2.9342,2.9335,2.9318,2.935,2.9363,2.9369,2.9298,2.9298,2.9297,2.9297,0,0,2.9131,2.9161,2.9168,2.918,2.9203,2.9222,2.9249,2.9273,2.9285,2.9303,2.9324,2.9356,2.9349,2.9361,2.9363,2.938,2.9412,2.937,2.937,2.9376,2.9453,2.9457,2.9463,2.941,2.9411,2.9412,2.9451,0,2.9169,2.9217,2.9224,2.9265,2.9288,2.9286,2.9309,2.9325,2.9333,2.9353,2.9361,2.9382,2.9372,2.938,2.9397,2.9405,2.9427,2.9402,2.9428,2.9428,2.9422,2.947,2.9475,2.9511,2.9456,2.9457,2.9457,0,2.922,2.9242,2.9286,2.9306,2.9316,2.9337,2.9359,2.9378,2.9396,2.9401,2.9416,2.9415,2.9441,2.9425,2.946,2.9443,2.9454,2.946,2.9461,2.9462,2.9444,2.9471,2.9523,2.9528,2.9466,2.9465,2.9464,0,2.9246,2.9286,2.9318,2.9328,2.9353,2.9367,2.9378,2.9395,2.9409,2.9428,2.9437,2.9458,2.947,2.9486,2.9491,2.9479,2.9526,2.951,2.9529,2.9528,2.9537,2.9536,2.959,2.9547,2.9547,2.9547,2.9547,0,2.9288,2.9315,2.933,2.9349,2.9379,2.9386,2.9415,2.9424,2.944,2.946,2.946,2.9479,2.9485,2.9505,2.9509,2.9537,2.9542,2.9545,2.9546,2.9545,2.9544,2.955,2.9547,2.9548,2.9548,2.9547,2.9547,0,2.9321,2.9332,2.9366,2.9388,2.9394,2.9415,2.9432,2.945,2.9459,2.9484,2.949,2.9503,2.9526,2.9533,2.9561,2.9564,2.9596,2.9595,2.959,2.959,2.9607,2.9605,2.9666,2.9673,2.9627,2.9627,2.9628,0,2.9346,2.9367,2.9391,2.9405,2.9417,2.944,2.9455,2.9463,2.9478,2.95,2.9515,2.9538,2.9557,2.9594,2.9604,2.9625,2.9624,2.9644,2.9627,2.9625,2.9622,2.9621,2.9622,2.9646,2.9647,2.9647,2.9648,0,2.9388,2.9393,2.9415,2.9439,2.9457,2.9476,2.9494,2.9506,2.9516,2.9533,2.9557,2.9572,2.9601,2.9624,2.9645,2.9655,2.9652,2.9653,2.9658,2.9656,2.9652,2.9653,2.9597,2.9651,2.9651,2.9651,2.965,2.965,2.9417,2.9436,2.9456,2.948,2.9495,2.9513,2.9531,2.9542,2.9563,2.9588,2.9591,2.9617,2.9634,2.9663,2.9674,2.9694,2.9688,2.9696,2.9697,2.9699,2.9699,2.9651,2.9698,2.9698,2.9698,2.9698,2.9698,0,2.9459,2.9472,2.9495,2.9521,2.954,2.9539,2.9559,2.9574,2.9598,2.9615,2.9634,2.9662,2.9684,2.9697,2.9719,2.9732,2.9731,2.9737,2.9735,2.9738,2.9704,2.9697,2.9737,2.9737,2.9737,2.9737,2.9737,2.9737,2.9482,2.9513,2.9521,2.9559,2.9572,2.9598,2.961,2.9625,2.9639,2.9671,2.969,2.9699,2.9714,2.9737,2.9757,2.976,2.9768,2.9774,2.9776,2.9744,2.974,2.9736,2.9729,2.9776,2.9776,2.9808,2.9808,2.9808]}]]